Weather History for Keahole Point, HI

Change the Weather History Date:

Saturday, August 2, 2014

  Actual Average Record
Temperature  
Mean Temperature 83 °F -  
Max Temperature 88 °F 83 °F 92 °F (1982)
Min Temperature 78 °F 73 °F 69 °F (1989)
Cooling Degree Days 18    
Growing Degree Days 33 (Base 50)    
Moisture  
Dew Point 72 °F    
Average Humidity 71    
Maximum Humidity 79    
Minimum Humidity 60    
Precipitation  
Precipitation 0.00 in - - ()
Sea Level Pressure  
Sea Level Pressure 29.93 in    
Wind  
Wind Speed 6 mph (SW)    
Max Wind Speed 12 mph    
Max Gust Speed -    
Visibility 10 miles    
Events      
Averages and records for this station are not official NWS values.
T = Trace of Precipitation, MM = Missing Value Source: NWS Daily Summary

Daily Weather History Graph

Daily Weather History Graph

Search for Another Location

Airport:

Trip Planner

Search our weather history database for the weather conditions in past years. The results will help you decide how hot, cold, wet, or windy it might be!

Date:

Astronomy

Aug. 02, 2014 Rise Set
Actual Time 6:00 AM HST 7:00 PM HST
Civil Twilight 5:37 AM HST 7:23 PM HST
Nautical Twilight 5:09 AM HST 7:51 PM HST
Astronomical Twilight 4:41 AM HST 8:19 PM HST
Moon 11:35 AM HST (8/2) 11:25 PM HST (8/2)
Length of Visible Light 13h 46m
Length of Day
12h 59m
Waxing Crescent, 39% of the Moon is Illuminated
Aug 2
Waxing Crescent
Aug 3
First Quarter
Aug 10
Full
Aug 17
Last Quarter
Aug 25
New

Hourly Weather History & Observations

Time (HST) Temp. Heat Index Dew Point Humidity Pressure Visibility Wind Dir Wind Speed Gust Speed Precip Events Conditions
12:32 AM 80.6 °F 85.4 °F 73.4 °F 79% 29.93 in 10.0 mi West 5.8 mph - N/A   Overcast
12:51 AM 80.6 °F 85.4 °F 73.4 °F 79% 29.92 in 10.0 mi Calm Calm - N/A   Overcast
12:53 AM 81.0 °F 85.8 °F 73.0 °F 77% 29.93 in 10.0 mi Calm Calm - N/A   Overcast
1:53 AM 80.1 °F 84.2 °F 73.0 °F 79% 29.91 in 10.0 mi SE 6.9 mph - N/A   Scattered Clouds
2:53 AM 79.0 °F - 71.1 °F 77% 29.90 in 10.0 mi ESE 6.9 mph - N/A   Clear
3:53 AM 79.0 °F - 69.1 °F 72% 29.90 in 10.0 mi ESE 8.1 mph - N/A   Clear
4:53 AM 79.0 °F - 70.0 °F 74% 29.90 in 10.0 mi ESE 5.8 mph - N/A   Clear
5:53 AM 78.1 °F - 69.1 °F 74% 29.91 in 10.0 mi SE 6.9 mph - N/A   Clear
6:53 AM 80.1 °F 82.3 °F 66.9 °F 64% 29.93 in 10.0 mi Calm Calm - N/A   Clear
7:53 AM 82.9 °F 85.8 °F 68.0 °F 60% 29.94 in - South 5.8 mph - N/A   Scattered Clouds
8:53 AM 82.9 °F 88.0 °F 72.0 °F 69% 29.95 in 10.0 mi SSW 4.6 mph - N/A   Scattered Clouds
9:53 AM 84.0 °F 91.2 °F 73.9 °F 72% 29.95 in 10.0 mi WSW 10.4 mph - N/A   Scattered Clouds
10:53 AM 84.9 °F 92.1 °F 73.9 °F 69% 29.95 in 10.0 mi SW 9.2 mph - N/A   Clear
11:53 AM 86.0 °F 93.0 °F 73.0 °F 65% 29.94 in 10.0 mi West 9.2 mph - N/A   Scattered Clouds
12:53 PM 86.0 °F 93.0 °F 73.0 °F 65% 29.93 in 10.0 mi WSW 9.2 mph - N/A   Mostly Cloudy
1:53 PM 88.0 °F 95.6 °F 73.0 °F 61% 29.91 in 10.0 mi WSW 10.4 mph - N/A   Scattered Clouds
2:53 PM 87.1 °F 96.3 °F 75.0 °F 67% 29.90 in 10.0 mi West 11.5 mph - N/A   Scattered Clouds
3:53 PM 84.9 °F 92.1 °F 73.9 °F 69% 29.90 in 10.0 mi West 6.9 mph - N/A   Overcast
4:53 PM 84.9 °F 91.4 °F 73.0 °F 67% 29.90 in 10.0 mi SW 8.1 mph - N/A   Mostly Cloudy
5:53 PM 84.0 °F 89.6 °F 72.0 °F 67% 29.90 in 10.0 mi South 5.8 mph - N/A   Mostly Cloudy
6:53 PM 82.9 °F 88.0 °F 72.0 °F 69% 29.91 in 10.0 mi South 5.8 mph - N/A   Overcast
7:53 PM 82.9 °F 88.8 °F 73.0 °F 72% 29.94 in 10.0 mi SSE 5.8 mph - N/A   Overcast
8:53 PM 82.0 °F 87.9 °F 73.9 °F 76% 29.96 in 10.0 mi South 4.6 mph - N/A   Overcast
9:53 PM 82.0 °F 87.4 °F 73.0 °F 74% 29.98 in 10.0 mi SW 4.6 mph - N/A   Scattered Clouds
10:19 PM 80.6 °F 85.4 °F 73.4 °F 79% 29.97 in 10.0 mi West 5.8 mph - N/A   Mostly Cloudy
10:53 PM 81.0 °F 86.2 °F 73.9 °F 79% 29.97 in 10.0 mi West 5.8 mph - N/A   Overcast
11:53 PM 82.0 °F 85.9 °F 70.0 °F 67% 29.96 in 10.0 mi North 6.9 mph - N/A   Overcast